Date String (YYYY-MM-DD hh:mm:ss) UTC,Instrument flags,Ambient pressure (hPa),Sample flow (lpm),Bypass flow (lpm),Sample temperature (°C),Ambient temperature (°C),ASC tube jacket temperature (°C),LED temperature (°C),Box temperature (°C),Sample RH (%),Span deviation,Mass concentration (μg/m³),Mass concentration (μg/m³),Mass concentration (μg/m³)
DateTimeUTC,F1_M11,P_M11,Q1_M11,Q2_M11,T1_M11,T2_M11,T3_M11,T4_M11,T5_M11,U1_M11,ZSPAN_M11,X2_M11,X0_M11,X1_M11
2023-04-09 21:00:00,,0835.3,5.00,0.00,27.7,26.4,00.0,36.0,29.2,10.4,0000.0,0003.98,0008.39,0003.10
2023-04-09 21:01:00,,0835.4,5.00,0.00,27.7,26.4,00.0,36.0,29.3,10.3,0000.0,0003.98,0008.37,0003.08
2023-04-09 21:02:00,,0835.2,4.99,0.00,27.7,26.5,00.0,36.0,29.3,10.3,0000.0,0004.03,0008.65,0003.09
2023-04-09 21:03:00,,0835.3,5.00,0.00,27.7,26.5,00.0,36.0,29.3,10.3,0000.0,0004.05,0008.79,0003.09
2023-04-09 21:04:00,,0835.4,5.00,0.00,27.7,26.5,00.0,36.0,29.3,10.3,0000.0,0004.11,0008.94,0003.10
2023-04-09 21:05:00,,0835.3,5.00,0.00,27.8,26.5,00.0,36.0,29.3,10.3,0000.0,0004.13,0008.72,0003.10
2023-04-09 21:06:00,,0835.2,5.00,0.00,27.8,26.5,00.0,36.0,29.3,10.4,0000.0,0004.18,0008.88,0003.12
2023-04-09 21:07:00,,0835.2,5.00,0.00,27.8,26.5,00.0,36.0,29.3,10.2,0000.0,0004.17,0008.87,0003.12
2023-04-09 21:08:00,,0835.3,4.99,0.00,27.8,26.5,00.0,36.0,29.4,10.3,0000.0,0004.11,0008.62,0003.13
2023-04-09 21:09:00,,0835.3,5.00,0.00,27.8,26.6,00.0,36.1,29.4,10.2,0000.0,0004.08,0008.51,0003.13
2023-04-09 21:10:00,,0835.4,5.01,0.00,27.8,26.6,00.0,36.1,29.4,10.2,0000.0,0004.11,0008.57,0003.13
2023-04-09 21:11:00,,0835.3,5.00,0.00,27.8,26.6,00.0,36.1,29.4,10.2,0000.0,0004.16,0008.71,0003.13
2023-04-09 21:12:00,,0835.3,4.99,0.00,27.8,26.6,00.0,36.1,29.4,10.2,0000.0,0004.14,0009.04,0003.12
2023-04-09 21:13:00,,0835.4,4.99,0.00,27.8,26.6,00.0,36.1,29.4,10.2,0000.0,0004.16,0009.30,0003.12
2023-04-09 21:14:00,,0834.9,4.99,0.00,27.9,26.6,00.0,36.1,29.4,10.2,0000.0,0004.17,0009.20,0003.12
2023-04-09 21:15:00,,0834.9,5.00,0.00,27.9,26.6,00.0,36.1,29.4,10.2,0000.0,0004.20,0009.47,0003.13
2023-04-09 21:16:00,,0834.9,5.00,0.00,27.9,26.6,00.0,36.1,29.4,10.3,0000.0,0004.20,0009.68,0003.12
2023-04-09 21:17:00,,0835.0,5.00,0.00,27.9,26.7,00.0,36.2,29.4,10.4,0000.0,0004.17,0009.66,0003.10
2023-04-09 21:18:00,,0835.2,5.00,0.00,27.9,26.7,00.0,36.2,29.5,10.6,0000.0,0004.16,0009.42,0003.10
2023-04-09 21:19:00,,0835.1,5.00,0.00,27.9,26.7,00.0,36.2,29.5,10.7,0000.0,0004.20,0009.57,0003.09
2023-04-09 21:20:00,,0835.2,5.00,0.00,27.9,26.7,00.0,36.2,29.5,10.5,0000.0,0004.23,0009.69,0003.07
2023-04-09 21:21:00,,0834.9,5.00,0.00,28.0,26.7,00.0,36.2,29.5,10.2,0000.0,0004.22,0009.73,0003.03
2023-04-09 21:22:00,,0835.1,4.99,0.00,28.0,26.7,00.0,36.2,29.5,10.0,0000.0,0004.15,0009.56,0003.00
2023-04-09 21:23:00,,0834.9,5.00,0.00,28.0,26.8,00.0,36.2,29.5,10.4,0000.0,0004.17,0010.11,0002.96
2023-04-09 21:24:00,,0834.9,4.99,0.00,28.0,26.8,00.0,36.2,29.5,10.1,0000.0,0004.15,0009.80,0002.92
2023-04-09 21:25:00,,0834.9,5.00,0.00,28.0,26.8,00.0,36.3,29.5,09.7,0000.0,0004.14,0009.81,0002.88
2023-04-09 21:26:00,,0834.9,5.00,0.00,28.0,26.8,00.0,36.3,29.6,09.5,0000.0,0004.09,0009.57,0002.84
2023-04-09 21:27:00,,0835.0,5.00,0.00,28.0,26.8,00.0,36.3,29.6,09.8,0000.0,0004.05,0009.21,0002.80
2023-04-09 21:28:00,,0835.0,4.99,0.00,28.1,26.8,00.0,36.3,29.6,09.5,0000.0,0004.03,0009.16,0002.75
2023-04-09 21:29:00,,0835.0,5.00,0.00,28.1,26.8,00.0,36.3,29.6,09.4,0000.0,0004.02,0009.24,0002.69
2023-04-09 21:30:00,,0835.0,5.00,0.00,28.1,26.9,00.0,36.3,29.6,09.5,0000.0,0004.01,0009.31,0002.65
2023-04-09 21:31:00,,0835.0,5.00,0.00,28.1,26.9,00.0,36.3,29.6,09.9,0000.0,0004.00,0009.58,0002.65
2023-04-09 21:32:00,,0835.0,5.00,0.00,28.1,26.9,00.0,36.4,29.7,09.9,0000.0,0004.02,0009.65,0002.71
2023-04-09 21:33:00,,0835.0,5.00,0.00,28.1,26.9,00.0,36.4,29.7,09.9,0000.0,0004.03,0009.80,0002.73
2023-04-09 21:34:00,,0835.0,5.00,0.00,28.1,26.9,00.0,36.4,29.7,09.8,0000.0,0004.07,0010.07,0002.76
2023-04-09 21:35:00,,0834.9,5.01,0.00,28.1,26.9,00.0,36.4,29.7,09.8,0000.0,0004.07,0010.12,0002.81
2023-04-09 21:36:00,,0835.0,5.01,0.00,28.2,27.0,00.0,36.4,29.7,09.8,0000.0,0004.08,0010.17,0002.84
2023-04-09 21:37:00,,0835.0,4.99,0.00,28.2,27.0,00.0,36.4,29.7,09.8,0000.0,0004.10,0010.41,0002.87
2023-04-09 21:38:00,,0835.0,5.00,0.00,28.2,27.0,00.0,36.4,29.7,09.8,0000.0,0004.07,0010.98,0002.87
2023-04-09 21:39:00,,0835.0,4.99,0.00,28.2,27.0,00.0,36.4,29.8,09.9,0000.0,0004.08,0010.94,0002.90
2023-04-09 21:40:00,,0834.9,5.00,0.00,28.2,27.0,00.0,36.5,29.8,10.0,0000.0,0004.12,0011.41,0002.96
2023-04-09 21:41:00,,0835.0,5.00,0.00,28.2,27.0,00.0,36.5,29.8,10.1,0000.0,0004.08,0011.38,0003.00
2023-04-09 21:42:00,,0835.0,5.00,0.00,28.2,27.1,00.0,36.5,29.8,09.9,0000.0,0004.07,0010.95,0003.02
2023-04-09 21:43:00,,0835.0,5.00,0.00,28.2,27.1,00.0,36.5,29.8,09.8,0000.0,0004.12,0011.19,0003.00
2023-04-09 21:44:00,,0835.0,5.01,0.00,28.3,27.1,00.0,36.5,29.8,09.9,0000.0,0004.11,0011.22,0002.96
2023-04-09 21:45:00,,0835.0,5.00,0.00,28.3,27.1,00.0,36.6,29.8,10.0,0000.0,0004.07,0010.70,0002.96
2023-04-09 21:46:00,,0835.0,5.01,0.00,28.3,27.1,00.0,36.6,29.8,09.9,0000.0,0004.06,0010.39,0002.95
2023-04-09 21:47:00,,0835.0,5.01,0.00,28.3,27.1,00.0,36.6,29.9,09.8,0000.0,0004.01,0010.24,0002.96
2023-04-09 21:48:00,,0835.0,5.00,0.00,28.3,27.1,00.0,36.6,29.9,10.0,0000.0,0004.01,0010.05,0002.99
2023-04-09 21:49:00,,0835.0,5.00,0.00,28.3,27.2,00.0,36.6,29.9,09.9,0000.0,0004.05,0009.48,0003.02
2023-04-09 21:50:00,,0835.0,5.00,0.00,28.4,27.2,00.0,36.6,29.9,09.9,0000.0,0004.05,0009.44,0003.02
2023-04-09 21:51:00,,0835.0,5.00,0.00,28.4,27.2,00.0,36.6,29.9,09.8,0000.0,0004.01,0009.09,0002.99
2023-04-09 21:52:00,,0835.0,4.99,0.00,28.4,27.2,00.0,36.6,29.9,09.3,0000.0,0003.97,0008.68,0002.95
2023-04-09 21:53:00,,0835.0,4.99,0.00,28.4,27.2,00.0,36.6,29.9,09.4,0000.0,0003.93,0008.61,0002.88
2023-04-09 21:54:00,,0835.0,5.00,0.00,28.4,27.2,00.0,36.7,29.9,09.3,0000.0,0003.85,0008.54,0002.81
2023-04-09 21:55:00,,0835.0,5.00,0.00,28.4,27.2,00.0,36.7,29.9,09.4,0000.0,0003.82,0008.61,0002.78
2023-04-09 21:56:00,,0835.0,5.00,0.00,28.4,27.2,00.0,36.7,29.9,09.3,0000.0,0003.83,0008.75,0002.73
2023-04-09 21:57:00,,0835.1,5.00,0.00,28.4,27.2,00.0,36.7,30.0,09.2,0000.0,0003.83,0008.49,0002.67
2023-04-09 21:58:00,,0835.0,5.00,0.00,28.4,27.2,00.0,36.7,30.0,09.1,0000.0,0003.81,0008.45,0002.60
2023-04-09 21:59:00,,0835.0,5.00,0.00,28.4,27.2,00.0,36.7,30.0,09.0,0000.0,0003.77,0008.39,0002.52
